FENGYUN 1C DEB

Satellite information

Favourite Embed

Satellite Type and Status

DEBRISIN ORBIT

Key statistics

Satellite FENGYUN 1C DEB at a glance.

Uptime

9715

Days in orbit

Revolutions

≈ 14.3

Per day

Orbit

SSO

Sun Synchronous Orbit

Inclination

98.5

Latest

Satellite identification and parameters

Extended collection of information and parameters for FENGYUN 1C DEB.

Object identification

Identified? True

Debris? True

Object name: FENGYUN 1C DEB

International designator: 1999-025BKA

Object number (NORAD): 31196

Object ID (CCSDS): 31196

Country: PEOPLES REPUBLIC OF CHINA (PRC)

Current information (Y/N): Y

RCS size: SMALL

Orbital parameters

Period: 101.02 minutes

Inclination: 98.5269 deg

SMA: 7185.085 km

Apoapsis: 848.554 km

Periapsis: 765.346 km

RAAN: 0.0907 deg

Eccentricy: 0.00579035

Argument of periapsis: 211.7627 deg

Mean anomaly: 148.0055 deg

Mean motion: 14.25459598 rev/day

Mean motion (dot): 0.00001783 rev/day2

B* drag term: 0.00075960645 1/REarth

Two-line elements (TLE)

Creation date: Dec. 13, 2025, 4:32 a.m.

Reference frame: TEME

Reference center: EARTH

Epoch: Dec. 12, 2025, 8:53 p.m. UTC

TLE line 0: 0 FENGYUN 1C DEB

TLE line 1: 1 31196U 99025BKA 25346.87068449 .00001783 00000-0 75961-3 0 9991

TLE line 2: 2 31196 98.5269 0.0907 0057903 211.7627 148.0055 14.25459598634971

Live tracking on map

Real-time ground track for satellite FENGYUN 1C DEB.

In-orbit conjunctions

A list of the most updated potential collisions computed for object FENGYUN 1C DEB.

Target Orbit TCA Probability of collision Miss distance Type
SL-16 R/B LEO 2025-11-18 14:14:25 0.003997415 33.0 (m) ROCKET BODY
METEOR 2-17 DEB LEO 2025-09-29 22:23:30 0.0001182427 165.0 (m) DEBRIS
COSMOS 2251 DEB LEO 2025-08-06 05:47:18 0.0001113428 240.0 (m) DEBRIS
THORAD AGENA D DEB LEO 2025-01-20 16:22:28 0.0002745227 215.0 (m) DEBRIS

Associated space launch

Chinese polar orbiting meteorological satellite

FENGYUN 1C DEB was lifted into orbit during the mission ‘Long March 4B | Feng Yun 1C’, on board a Long March 4B space rocket.

The launch took place on May 10, 1999, 1:33 a.m. from Launch Complex 7.

For more information about the launch, click the button.

Launch to space Long March 4B | Feng Yun 1C
Long March 4B | Feng Yun 1C

Agency: N/A

Status: Launch Successful

Launch date: May 10, 1999, 1:33 a.m. UTC

Rocket: Long March 4B

Launch pad: Launch Complex 7

Location: Taiyuan Satellite Launch Center, People's Republic of China

...

Latest news about this satellite

There are no fresh news available about this satellite. Check back as we update our databases every day.


Newsletter sign-up

Weekly statistics, charts and insights to help you stay on top of the space industry.